STARLINK-35951

Satellite information

Favourite Embed

Satellite Type and Status

PAYLOADIN ORBIT

Key statistics

Satellite STARLINK-35951 at a glance.

Uptime

24

Days in orbit

Revolutions

≈ 15.5

Per day

Orbit

LEO

Low Earth Orbit

Inclination

53.2

Latest

Satellite identification and parameters

Extended collection of information and parameters for STARLINK-35951.

Object identification

Identified? True

Debris? False

Object name: STARLINK-35951

International designator: 2025-271C

Object number (NORAD): 66619

Object ID (CCSDS): 66619

Country: UNITED STATES OF AMERICA (US)

Current information (Y/N): Y

Orbital parameters

Period: 92.944 minutes

Inclination: 53.1589 deg

SMA: 6796.827 km

Apoapsis: 419.107 km

Periapsis: 418.276 km

RAAN: 167.25 deg

Eccentricy: 0.00006112

Argument of periapsis: 87.2162 deg

Mean anomaly: 272.8917 deg

Mean motion: 15.49328286 rev/day

Mean motion (dot): 0.00070395 rev/day2

B* drag term: 0.0012615203 1/REarth

Two-line elements (TLE)

Creation date: Dec. 17, 2025, 2:25 a.m.

Reference frame: TEME

Reference center: EARTH

Epoch: Dec. 16, 2025, 9:58 p.m. UTC

TLE line 0: 0 STARLINK-35951

TLE line 1: 1 66619U 25271C 25350.91556140 .00070395 00000-0 12615-2 0 9992

TLE line 2: 2 66619 53.1589 167.2500 0000611 87.2162 272.8917 15.49328286 4857

Live tracking on map

Real-time ground track for satellite STARLINK-35951.

In-orbit conjunctions

There are no conjunctions computed for STARLINK-35951, at the moment. Check back to stay up to date, as we update our databases every day.

Go to all conjunctions

Associated space launch

A batch of 28 satellites for the Starlink mega-constellation - SpaceX's project for space-based Internet communication system.

STARLINK-35951 was lifted into orbit during the mission ‘Falcon 9 Block 5 | Starlink Group 11-30’, on board a Falcon 9 space rocket.

The launch took place on Nov. 23, 2025, 8:48 a.m. from Space Launch Complex 4E.

For more information about the launch, click the button.

Launch to space Falcon 9 Block 5 | Starlink Group 11-30
Falcon 9 Block 5 | Starlink Group 11-30

Agency: SpaceX

Status: Launch Successful

Launch date: Nov. 23, 2025, 8:48 a.m. UTC

Rocket: Falcon 9

Launch pad: Space Launch Complex 4E

Location: Vandenberg SFB, CA, USA

...

Latest news about this satellite

News about space launch
Live coverage: SpaceX to launch 28 Starlink satellites from Vandenberg on brand new Falcon 9 rocket

Liftoff from Space Launch Complex 4E at Vandenberg Space Force Base, California, is scheduled for 12:34 a.m. PST (3:34 a.m. EST / 0834 UTC).

News about space launch
Launch Roundup: Innospace to debut new rocket, SpaceX to launch five Falcon 9 missions

Another busy week of launches has arrived, with SpaceX planning to launch five Falcon 9… The post Launch Roundup: Innospace to debut new rocket, SpaceX to launch five Falcon 9 missions appeared first on NASASpaceFlight.com.


Newsletter sign-up

Weekly statistics, charts and insights to help you stay on top of the space industry.